Wetterdaten: Mittwoch, 03.11.2010
Datum Zeit Temp. A. Feuchte A. Luftdruck Regen Wind Richtung Richtung Sonnenschein UV Solar Windben
03.11.2010 00:00 11,8 C 81 % 1010,7 hPa 0,0 mm 3,2 km/h (1 Bft) S-SW 202 0 min 0 UV-I 0 W/m 9,7 km/h (2 Bft)
03.11.2010 00:10 11,8 C 80 % 1010,6 hPa 0,0 mm 4,8 km/h (1 Bft) SW 225 0 min 0 UV-I 0 W/m 14,5 km/h (3 Bft)
03.11.2010 00:20 11,8 C 80 % 1010,7 hPa 0,0 mm 4,8 km/h (1 Bft) SW 225 0 min 0 UV-I 0 W/m 16,1 km/h (3 Bft)
03.11.2010 00:30 11,9 C 80 % 1010,6 hPa 0,0 mm 6,4 km/h (2 Bft) SW 225 0 min 0 UV-I 0 W/m 19,3 km/h (3 Bft)
03.11.2010 00:40 11,9 C 79 % 1010,6 hPa 0,0 mm 4,8 km/h (1 Bft) SW 225 0 min 0 UV-I 0 W/m 19,3 km/h (3 Bft)
03.11.2010 00:50 12,0 C 79 % 1010,6 hPa 0,0 mm 6,4 km/h (2 Bft) W-SW 247 0 min 0 UV-I 0 W/m 22,5 km/h (4 Bft)
03.11.2010 01:00 12,1 C 78 % 1010,5 hPa 0,0 mm 6,4 km/h (2 Bft) SW 225 0 min 0 UV-I 0 W/m 22,5 km/h (4 Bft)
03.11.2010 01:10 12,1 C 78 % 1010,5 hPa 0,0 mm 8,0 km/h (2 Bft) SW 225 0 min 0 UV-I 0 W/m 17,7 km/h (3 Bft)
03.11.2010 01:20 12,1 C 77 % 1010,5 hPa 0,0 mm 6,4 km/h (2 Bft) SW 225 0 min 0 UV-I 0 W/m 20,9 km/h (4 Bft)
03.11.2010 01:30 12,2 C 77 % 1010,4 hPa 0,0 mm 6,4 km/h (2 Bft) SW 225 0 min 0 UV-I 0 W/m 17,7 km/h (3 Bft)
03.11.2010 01:40 12,2 C 77 % 1010,3 hPa 0,0 mm 4,8 km/h (1 Bft) W-SW 247 0 min 0 UV-I 0 W/m 14,5 km/h (3 Bft)
03.11.2010 01:50 12,2 C 77 % 1010,2 hPa 0,0 mm 4,8 km/h (1 Bft) SW 225 0 min 0 UV-I 0 W/m 16,1 km/h (3 Bft)
03.11.2010 02:00 12,1 C 77 % 1009,8 hPa 0,0 mm 4,8 km/h (1 Bft) SW 225 0 min 0 UV-I 0 W/m 19,3 km/h (3 Bft)
03.11.2010 02:10 12,1 C 77 % 1009,8 hPa 0,0 mm 6,4 km/h (2 Bft) W-SW 247 0 min 0 UV-I 0 W/m 22,5 km/h (4 Bft)
03.11.2010 02:20 12,1 C 77 % 1009,9 hPa 0,0 mm 4,8 km/h (1 Bft) W-SW 247 0 min 0 UV-I 0 W/m 16,1 km/h (3 Bft)
03.11.2010 02:30 12,1 C 77 % 1009,8 hPa 0,0 mm 6,4 km/h (2 Bft) SW 225 0 min 0 UV-I 0 W/m 20,9 km/h (4 Bft)
03.11.2010 02:40 12,1 C 77 % 1009,8 hPa 0,0 mm 6,4 km/h (2 Bft) W-SW 247 0 min 0 UV-I 0 W/m 22,5 km/h (4 Bft)
03.11.2010 02:50 12,2 C 76 % 1009,7 hPa 0,0 mm 9,7 km/h (2 Bft) W-SW 247 0 min 0 UV-I 0 W/m 25,7 km/h (4 Bft)
03.11.2010 03:00 12,2 C 76 % 1009,6 hPa 0,0 mm 9,7 km/h (2 Bft) SW 225 0 min 0 UV-I 0 W/m 24,1 km/h (4 Bft)
03.11.2010 03:10 12,3 C 76 % 1009,6 hPa 0,0 mm 8,0 km/h (2 Bft) W-SW 247 0 min 0 UV-I 0 W/m 20,9 km/h (4 Bft)
03.11.2010 03:20 12,3 C 76 % 1009,5 hPa 0,0 mm 8,0 km/h (2 Bft) W-SW 247 0 min 0 UV-I 0 W/m 24,1 km/h (4 Bft)
03.11.2010 03:30 12,3 C 76 % 1009,5 hPa 0,0 mm 8,0 km/h (2 Bft) S-SW 202 0 min 0 UV-I 0 W/m 20,9 km/h (4 Bft)
03.11.2010 03:40 12,3 C 76 % 1009,5 hPa 0,0 mm 6,4 km/h (2 Bft) W-SW 247 0 min 0 UV-I 0 W/m 19,3 km/h (3 Bft)
03.11.2010 03:50 12,3 C 76 % 1009,5 hPa 0,0 mm 9,7 km/h (2 Bft) W-SW 247 0 min 0 UV-I 0 W/m 24,1 km/h (4 Bft)
03.11.2010 04:00 12,3 C 77 % 1009,5 hPa 0,0 mm 8,0 km/h (2 Bft) S-SW 202 0 min 0 UV-I 0 W/m 20,9 km/h (4 Bft)
03.11.2010 04:10 12,3 C 77 % 1009,7 hPa 0,0 mm 6,4 km/h (2 Bft) S-SW 202 0 min 0 UV-I 0 W/m 22,5 km/h (4 Bft)
03.11.2010 04:20 12,3 C 77 % 1009,5 hPa 0,0 mm 6,4 km/h (2 Bft) S-SW 202 0 min 0 UV-I 0 W/m 20,9 km/h (4 Bft)
03.11.2010 04:30 12,3 C 77 % 1009,5 hPa 0,0 mm 6,4 km/h (2 Bft) SW 225 0 min 0 UV-I 0 W/m 20,9 km/h (4 Bft)
03.11.2010 04:40 12,3 C 76 % 1009,3 hPa 0,0 mm 8,0 km/h (2 Bft) SW 225 0 min 0 UV-I 0 W/m 22,5 km/h (4 Bft)
03.11.2010 04:50 12,3 C 76 % 1009,3 hPa 0,0 mm 8,0 km/h (2 Bft) SW 225 0 min 0 UV-I 0 W/m 25,7 km/h (4 Bft)
03.11.2010 05:00 12,3 C 76 % 1009,3 hPa 0,0 mm 8,0 km/h (2 Bft) SW 225 0 min 0 UV-I 0 W/m 20,9 km/h (4 Bft)
03.11.2010 05:10 12,3 C 76 % 1009,2 hPa 0,0 mm 8,0 km/h (2 Bft) SW 225 0 min 0 UV-I 0 W/m 25,7 km/h (4 Bft)
03.11.2010 05:20 12,3 C 75 % 1009,0 hPa 0,0 mm 9,7 km/h (2 Bft) SW 225 0 min 0 UV-I 0 W/m 27,4 km/h (4 Bft)
03.11.2010 05:30 12,4 C 75 % 1009,0 hPa 0,0 mm 9,7 km/h (2 Bft) SW 225 0 min 0 UV-I 0 W/m 30,6 km/h (5 Bft)
03.11.2010 05:40 12,4 C 75 % 1009,2 hPa 0,0 mm 8,0 km/h (2 Bft) S-SW 202 0 min 0 UV-I 0 W/m 22,5 km/h (4 Bft)
03.11.2010 05:50 12,5 C 75 % 1009,2 hPa 0,0 mm 9,7 km/h (2 Bft) W-SW 247 0 min 0 UV-I 0 W/m 22,5 km/h (4 Bft)
03.11.2010 06:00 12,6 C 75 % 1009,1 hPa 0,0 mm 9,7 km/h (2 Bft) W-SW 247 0 min 0 UV-I 0 W/m 24,1 km/h (4 Bft)
03.11.2010 06:10 12,6 C 75 % 1008,9 hPa 0,0 mm 9,7 km/h (2 Bft) SW 225 0 min 0 UV-I 0 W/m 30,6 km/h (5 Bft)
03.11.2010 06:20 12,7 C 75 % 1008,6 hPa 0,0 mm 9,7 km/h (2 Bft) SW 225 0 min 0 UV-I 0 W/m 25,7 km/h (4 Bft)
03.11.2010 06:30 12,7 C 75 % 1008,6 hPa 0,0 mm 9,7 km/h (2 Bft) W-SW 247 0 min 0 UV-I 0 W/m 29,0 km/h (5 Bft)
03.11.2010 06:40 12,7 C 75 % 1008,4 hPa 0,0 mm 9,7 km/h (2 Bft) S-SW 202 0 min 0 UV-I 0 W/m 24,1 km/h (4 Bft)
03.11.2010 06:50 12,7 C 75 % 1008,5 hPa 0,0 mm 9,7 km/h (2 Bft) SW 225 0 min 0 UV-I 0 W/m 24,1 km/h (4 Bft)
03.11.2010 07:00 12,7 C 75 % 1008,7 hPa 0,0 mm 9,7 km/h (2 Bft) W-SW 247 0 min 0 UV-I 0 W/m 29,0 km/h (5 Bft)
03.11.2010 07:10 12,8 C 75 % 1008,8 hPa 0,0 mm 9,7 km/h (2 Bft) SW 225 0 min 0 UV-I 0 W/m 32,2 km/h (5 Bft)
03.11.2010 07:20 12,8 C 75 % 1008,8 hPa 0,0 mm 8,0 km/h (2 Bft) SW 225 0 min 0 UV-I 0 W/m 22,5 km/h (4 Bft)
03.11.2010 07:30 12,8 C 75 % 1008,8 hPa 0,0 mm 8,0 km/h (2 Bft) W-SW 247 0 min 0 UV-I 0 W/m 22,5 km/h (4 Bft)
03.11.2010 07:40 12,8 C 75 % 1008,7 hPa 0,0 mm 9,7 km/h (2 Bft) W 270 0 min 0 UV-I 0 W/m 27,4 km/h (4 Bft)
03.11.2010 07:50 12,8 C 75 % 1009,0 hPa 0,0 mm 9,7 km/h (2 Bft) SW 225 0 min 0 UV-I 0 W/m 30,6 km/h (5 Bft)
03.11.2010 08:00 12,8 C 75 % 1009,0 hPa 0,0 mm 9,2 km/h (2 Bft) SW 217 0 min 0 UV-I 0 W/m 20,9 km/h (4 Bft)
03.11.2010 08:10 12,8 C 75 % 1009,1 hPa 0,0 mm 9,7 km/h (2 Bft) W-SW 247 0 min 0 UV-I 7 W/m 27,4 km/h (4 Bft)
03.11.2010 08:20 12,9 C 75 % 1009,2 hPa 0,0 mm 9,7 km/h (2 Bft) W-SW 247 0 min 0 UV-I 12 W/m 25,7 km/h (4 Bft)
03.11.2010 08:30 12,9 C 76 % 1009,5 hPa 0,0 mm 8,0 km/h (2 Bft) S-SW 202 0 min 0 UV-I 11 W/m 20,9 km/h (4 Bft)
03.11.2010 08:40 12,9 C 76 % 1009,5 hPa 0,0 mm 8,0 km/h (2 Bft) W-SW 247 0 min 0 UV-I 16 W/m 25,7 km/h (4 Bft)
03.11.2010 08:50 12,9 C 77 % 1009,5 hPa 0,0 mm 9,7 km/h (2 Bft) W-SW 247 0 min 0 UV-I 23 W/m 24,1 km/h (4 Bft)
03.11.2010 09:00 12,9 C 78 % 1009,7 hPa 0,0 mm 11,3 km/h (2 Bft) W-SW 247 0 min 0 UV-I 21 W/m 24,1 km/h (4 Bft)
03.11.2010 09:10 12,8 C 80 % 1009,7 hPa 0,0 mm 9,7 km/h (2 Bft) SW 225 0 min 0 UV-I 18 W/m 30,6 km/h (5 Bft)
03.11.2010 09:20 12,6 C 81 % 1009,6 hPa 0,0 mm 11,3 km/h (2 Bft) W-SW 247 0 min 0 UV-I 26 W/m 32,2 km/h (5 Bft)
03.11.2010 09:30 12,4 C 82 % 1009,5 hPa 0,0 mm 9,7 km/h (2 Bft) W-SW 247 0 min 0 UV-I 53 W/m 29,0 km/h (5 Bft)
03.11.2010 09:40 12,4 C 83 % 1009,4 hPa 0,0 mm 9,7 km/h (2 Bft) SW 225 0 min 0 UV-I 67 W/m 24,1 km/h (4 Bft)
03.11.2010 09:50 12,4 C 83 % 1009,6 hPa 0,0 mm 9,7 km/h (2 Bft) W-SW 247 0 min 0 UV-I 63 W/m 25,7 km/h (4 Bft)
03.11.2010 10:00 12,5 C 83 % 1009,4 hPa 0,0 mm 9,7 km/h (2 Bft) W-SW 247 0 min 0 UV-I 47 W/m 24,1 km/h (4 Bft)
03.11.2010 10:10 12,5 C 83 % 1009,3 hPa 0,0 mm 9,7 km/h (2 Bft) SW 225 0 min 0 UV-I 46 W/m 25,7 km/h (4 Bft)
03.11.2010 10:20 12,6 C 83 % 1009,2 hPa 0,0 mm 8,0 km/h (2 Bft) W-SW 247 0 min 0 UV-I 53 W/m 20,9 km/h (4 Bft)
03.11.2010 10:30 12,7 C 83 % 1009,5 hPa 0,0 mm 11,3 km/h (2 Bft) SW 225 0 min 0 UV-I 54 W/m 32,2 km/h (5 Bft)
03.11.2010 10:40 12,7 C 83 % 1009,7 hPa 0,0 mm 11,3 km/h (2 Bft) SW 225 0 min 1 UV-I 81 W/m 27,4 km/h (4 Bft)
03.11.2010 10:50 12,8 C 84 % 1009,7 hPa 0,0 mm 9,7 km/h (2 Bft) SW 225 0 min 1 UV-I 95 W/m 24,1 km/h (4 Bft)
03.11.2010 11:00 12,8 C 85 % 1009,9 hPa 0,0 mm 8,0 km/h (2 Bft) SW 225 0 min 1 UV-I 91 W/m 29,0 km/h (5 Bft)
03.11.2010 11:10 12,7 C 86 % 1010,1 hPa 0,0 mm 9,7 km/h (2 Bft) W-SW 247 0 min 0 UV-I 47 W/m 37,0 km/h (5 Bft)
03.11.2010 11:20 12,6 C 86 % 1010,4 hPa 0,3 mm 8,0 km/h (2 Bft) SW 225 0 min 0 UV-I 46 W/m 29,0 km/h (5 Bft)
03.11.2010 11:30 12,4 C 87 % 1010,4 hPa 0,0 mm 8,0 km/h (2 Bft) SW 225 0 min 0 UV-I 60 W/m 22,5 km/h (4 Bft)
03.11.2010 11:40 12,4 C 88 % 1010,3 hPa 0,0 mm 6,4 km/h (2 Bft) W 270 0 min 0 UV-I 62 W/m 20,9 km/h (4 Bft)
03.11.2010 11:50 12,3 C 88 % 1010,1 hPa 0,0 mm 6,4 km/h (2 Bft) W-SW 247 0 min 0 UV-I 46 W/m 22,5 km/h (4 Bft)
03.11.2010 12:00 12,3 C 89 % 1010,1 hPa 0,0 mm 8,0 km/h (2 Bft) W-SW 247 0 min 0 UV-I 56 W/m 24,1 km/h (4 Bft)
03.11.2010 12:10 12,3 C 89 % 1010,1 hPa 0,0 mm 8,0 km/h (2 Bft) W-SW 247 0 min 1 UV-I 113 W/m 20,9 km/h (4 Bft)
03.11.2010 12:20 12,4 C 89 % 1010,0 hPa 0,0 mm 8,0 km/h (2 Bft) W-SW 247 0 min 1 UV-I 70 W/m 25,7 km/h (4 Bft)
03.11.2010 12:30 12,4 C 89 % 1010,1 hPa 0,0 mm 9,7 km/h (2 Bft) W-SW 247 0 min 0 UV-I 39 W/m 25,7 km/h (4 Bft)
03.11.2010 12:40 12,4 C 90 % 1010,1 hPa 0,3 mm 8,0 km/h (2 Bft) SW 225 0 min 0 UV-I 58 W/m 17,7 km/h (3 Bft)
03.11.2010 12:50 12,5 C 90 % 1010,2 hPa 0,0 mm 8,0 km/h (2 Bft) W-SW 247 0 min 0 UV-I 35 W/m 20,9 km/h (4 Bft)
03.11.2010 13:00 12,6 C 90 % 1010,1 hPa 0,0 mm 8,0 km/h (2 Bft) W-SW 247 0 min 0 UV-I 46 W/m 22,5 km/h (4 Bft)
03.11.2010 13:10 12,6 C 90 % 1010,1 hPa 0,3 mm 6,4 km/h (2 Bft) SW 225 0 min 0 UV-I 62 W/m 19,3 km/h (3 Bft)
03.11.2010 13:20 12,6 C 90 % 1010,2 hPa 0,0 mm 8,0 km/h (2 Bft) W-SW 247 0 min 0 UV-I 35 W/m 22,5 km/h (4 Bft)
03.11.2010 13:30 12,6 C 91 % 1010,3 hPa 0,0 mm 8,0 km/h (2 Bft) W-SW 247 0 min 0 UV-I 51 W/m 24,1 km/h (4 Bft)
03.11.2010 13:40 12,6 C 91 % 1010,5 hPa 0,0 mm 8,0 km/h (2 Bft) SW 225 0 min 0 UV-I 39 W/m 22,5 km/h (4 Bft)
03.11.2010 13:50 12,6 C 91 % 1010,5 hPa 0,3 mm 8,0 km/h (2 Bft) W-SW 247 0 min 0 UV-I 32 W/m 20,9 km/h (4 Bft)
03.11.2010 14:00 12,6 C 91 % 1010,8 hPa 0,3 mm 9,7 km/h (2 Bft) W 270 0 min 0 UV-I 28 W/m 22,5 km/h (4 Bft)
03.11.2010 14:10 12,5 C 91 % 1010,8 hPa 0,3 mm 8,0 km/h (2 Bft) W-SW 247 0 min 0 UV-I 16 W/m 22,5 km/h (4 Bft)
03.11.2010 14:20 12,5 C 91 % 1010,9 hPa 0,3 mm 8,0 km/h (2 Bft) W-SW 247 0 min 0 UV-I 28 W/m 20,9 km/h (4 Bft)
03.11.2010 14:30 12,5 C 91 % 1011,0 hPa 0,3 mm 6,4 km/h (2 Bft) W-SW 247 0 min 0 UV-I 46 W/m 16,1 km/h (3 Bft)
03.11.2010 14:40 12,5 C 92 % 1011,4 hPa 0,0 mm 8,0 km/h (2 Bft) W-SW 247 0 min 0 UV-I 65 W/m 17,7 km/h (3 Bft)
03.11.2010 14:50 12,4 C 91 % 1011,5 hPa 0,0 mm 6,4 km/h (2 Bft) W-SW 247 0 min 0 UV-I 40 W/m 19,3 km/h (3 Bft)
03.11.2010 15:00 12,3 C 91 % 1011,8 hPa 0,0 mm 6,4 km/h (2 Bft) W 270 0 min 1 UV-I 91 W/m 19,3 km/h (3 Bft)
03.11.2010 15:10 12,1 C 91 % 1012,0 hPa 0,0 mm 6,4 km/h (2 Bft) W-SW 247 0 min 0 UV-I 62 W/m 17,7 km/h (3 Bft)
03.11.2010 15:20 11,9 C 91 % 1011,8 hPa 0,0 mm 4,8 km/h (1 Bft) W-SW 247 0 min 0 UV-I 79 W/m 19,3 km/h (3 Bft)
03.11.2010 15:30 11,7 C 90 % 1011,9 hPa 0,0 mm 4,8 km/h (1 Bft) W 270 0 min 0 UV-I 79 W/m 16,1 km/h (3 Bft)
03.11.2010 15:40 11,7 C 90 % 1012,1 hPa 0,0 mm 4,8 km/h (1 Bft) W-SW 247 0 min 0 UV-I 76 W/m 17,7 km/h (3 Bft)
03.11.2010 15:50 11,7 C 89 % 1012,2 hPa 0,0 mm 4,8 km/h (1 Bft) W 270 0 min 0 UV-I 46 W/m 16,1 km/h (3 Bft)
03.11.2010 16:00 11,7 C 88 % 1012,2 hPa 0,0 mm 4,8 km/h (1 Bft) SW 234 0 min 0 UV-I 25 W/m 16,1 km/h (3 Bft)
03.11.2010 16:10 11,8 C 87 % 1012,2 hPa 0,0 mm 4,8 km/h (1 Bft) W-SW 247 0 min 0 UV-I 26 W/m 16,1 km/h (3 Bft)
03.11.2010 16:20 11,9 C 86 % 1012,3 hPa 0,0 mm 4,8 km/h (1 Bft) W-SW 247 0 min 0 UV-I 19 W/m 19,3 km/h (3 Bft)
03.11.2010 16:30 11,9 C 86 % 1012,3 hPa 0,0 mm 3,2 km/h (1 Bft) W-SW 247 0 min 0 UV-I 9 W/m 11,3 km/h (2 Bft)
03.11.2010 16:40 12,0 C 86 % 1012,4 hPa 0,0 mm 3,2 km/h (1 Bft) W-SW 247 0 min 0 UV-I 0 W/m 16,1 km/h (3 Bft)
03.11.2010 16:50 12,1 C 86 % 1012,5 hPa 0,0 mm 3,2 km/h (1 Bft) W 270 0 min 0 UV-I 0 W/m 14,5 km/h (3 Bft)
03.11.2010 17:00 12,1 C 85 % 1012,5 hPa 0,0 mm 1,6 km/h (1 Bft) W 270 0 min 0 UV-I 0 W/m 9,7 km/h (2 Bft)
03.11.2010 17:10 12,1 C 86 % 1012,7 hPa 0,0 mm 3,2 km/h (1 Bft) W-SW 247 0 min 0 UV-I 0 W/m 8,0 km/h (2 Bft)
03.11.2010 17:20 12,1 C 86 % 1012,5 hPa 0,0 mm 3,2 km/h (1 Bft) W-SW 247 0 min 0 UV-I 0 W/m 14,5 km/h (3 Bft)
03.11.2010 17:30 12,1 C 86 % 1012,7 hPa 0,0 mm 1,6 km/h (1 Bft) W 270 0 min 0 UV-I 0 W/m 9,7 km/h (2 Bft)
03.11.2010 17:40 12,1 C 86 % 1013,0 hPa 0,0 mm 1,6 km/h (1 Bft) W 270 0 min 0 UV-I 0 W/m 6,4 km/h (2 Bft)
03.11.2010 17:50 12,1 C 86 % 1013,1 hPa 0,0 mm 0,0 km/h (0 Bft) W 270 0 min 0 UV-I 0 W/m 3,2 km/h (1 Bft)
03.11.2010 18:00 12,1 C 86 % 1013,3 hPa 0,0 mm 0,0 km/h (0 Bft) W 270 0 min 0 UV-I 0 W/m 4,8 km/h (1 Bft)
03.11.2010 18:10 12,0 C 86 % 1013,3 hPa 0,0 mm 1,6 km/h (1 Bft) W 270 0 min 0 UV-I 0 W/m 8,0 km/h (2 Bft)
03.11.2010 18:20 12,0 C 87 % 1013,3 hPa 0,0 mm 1,6 km/h (1 Bft) W 270 0 min 0 UV-I 0 W/m 6,4 km/h (2 Bft)
03.11.2010 18:30 11,9 C 87 % 1013,3 hPa 0,0 mm 1,6 km/h (1 Bft) W-SW 247 0 min 0 UV-I 0 W/m 6,4 km/h (2 Bft)
03.11.2010 18:40 11,9 C 87 % 1013,2 hPa 0,0 mm 1,6 km/h (1 Bft) W-SW 247 0 min 0 UV-I 0 W/m 6,4 km/h (2 Bft)
03.11.2010 18:50 11,9 C 87 % 1013,2 hPa 0,0 mm 1,6 km/h (1 Bft) W-SW 247 0 min 0 UV-I 0 W/m 6,4 km/h (2 Bft)
03.11.2010 19:00 11,9 C 87 % 1013,3 hPa 0,0 mm 1,6 km/h (1 Bft) W-SW 247 0 min 0 UV-I 0 W/m 6,4 km/h (2 Bft)
03.11.2010 19:10 11,9 C 87 % 1013,2 hPa 0,0 mm 0,0 km/h (0 Bft) W-SW 247 0 min 0 UV-I 0 W/m 4,8 km/h (1 Bft)
03.11.2010 19:20 11,9 C 88 % 1013,9 hPa 0,0 mm 0,0 km/h (0 Bft) W-SW 247 0 min 0 UV-I 0 W/m 3,2 km/h (1 Bft)
03.11.2010 19:30 11,9 C 88 % 1014,0 hPa 0,0 mm 0,0 km/h (0 Bft) W-SW 247 0 min 0 UV-I 0 W/m 4,8 km/h (1 Bft)
03.11.2010 19:40 11,9 C 88 % 1014,3 hPa 0,0 mm 1,6 km/h (1 Bft) W-SW 247 0 min 0 UV-I 0 W/m 8,0 km/h (2 Bft)
03.11.2010 19:50 11,9 C 88 % 1014,4 hPa 0,0 mm 3,2 km/h (1 Bft) W-SW 247 0 min 0 UV-I 0 W/m 9,7 km/h (2 Bft)
03.11.2010 20:00 12,1 C 89 % 1014,3 hPa 0,0 mm 3,2 km/h (1 Bft) W-SW 247 0 min 0 UV-I 0 W/m 16,1 km/h (3 Bft)
03.11.2010 20:10 12,1 C 89 % 1014,2 hPa 0,0 mm 4,8 km/h (1 Bft) W 270 0 min 0 UV-I 0 W/m 16,1 km/h (3 Bft)
03.11.2010 20:20 12,1 C 89 % 1014,4 hPa 0,3 mm 1,6 km/h (1 Bft) W-SW 247 0 min 0 UV-I 0 W/m 9,7 km/h (2 Bft)
03.11.2010 20:30 12,1 C 89 % 1014,3 hPa 0,0 mm 1,6 km/h (1 Bft) W-SW 247 0 min 0 UV-I 0 W/m 9,7 km/h (2 Bft)
03.11.2010 20:40 12,2 C 89 % 1014,5 hPa 0,3 mm 3,2 km/h (1 Bft) W-SW 247 0 min 0 UV-I 0 W/m 12,9 km/h (3 Bft)
03.11.2010 20:50 12,1 C 89 % 1014,4 hPa 0,3 mm 1,6 km/h (1 Bft) W 270 0 min 0 UV-I 0 W/m 8,0 km/h (2 Bft)
03.11.2010 21:00 12,1 C 89 % 1014,5 hPa 0,3 mm 0,0 km/h (0 Bft) W 270 0 min 0 UV-I 0 W/m 6,4 km/h (2 Bft)
03.11.2010 21:10 12,1 C 89 % 1014,5 hPa 0,0 mm 0,0 km/h (0 Bft) W 270 0 min 0 UV-I 0 W/m 4,8 km/h (1 Bft)
03.11.2010 21:20 12,0 C 89 % 1014,6 hPa 0,3 mm 1,6 km/h (1 Bft) W-SW 247 0 min 0 UV-I 0 W/m 9,7 km/h (2 Bft)
03.11.2010 21:30 12,0 C 89 % 1014,7 hPa 0,3 mm 1,6 km/h (1 Bft) W-SW 247 0 min 0 UV-I 0 W/m 8,0 km/h (2 Bft)
03.11.2010 21:40 11,9 C 89 % 1014,8 hPa 0,0 mm 1,6 km/h (1 Bft) W-SW 247 0 min 0 UV-I 0 W/m 8,0 km/h (2 Bft)
03.11.2010 21:50 11,8 C 89 % 1014,8 hPa 0,3 mm 1,6 km/h (1 Bft) W-SW 247 0 min 0 UV-I 0 W/m 6,4 km/h (2 Bft)
03.11.2010 22:00 11,8 C 90 % 1014,8 hPa 0,3 mm 1,6 km/h (1 Bft) W-SW 247 0 min 0 UV-I 0 W/m 6,4 km/h (2 Bft)
03.11.2010 22:10 11,7 C 90 % 1014,8 hPa 0,3 mm 1,6 km/h (1 Bft) W-SW 247 0 min 0 UV-I 0 W/m 6,4 km/h (2 Bft)
03.11.2010 22:20 11,7 C 90 % 1014,9 hPa 0,5 mm 3,2 km/h (1 Bft) W-SW 247 0 min 0 UV-I 0 W/m 9,7 km/h (2 Bft)
03.11.2010 22:30 11,6 C 90 % 1014,8 hPa 0,3 mm 3,2 km/h (1 Bft) W-SW 247 0 min 0 UV-I 0 W/m 9,7 km/h (2 Bft)
03.11.2010 22:40 11,6 C 90 % 1014,9 hPa 0,0 mm 1,6 km/h (1 Bft) W-SW 247 0 min 0 UV-I 0 W/m 9,7 km/h (2 Bft)
03.11.2010 22:50 11,4 C 90 % 1014,7 hPa 0,3 mm 1,6 km/h (1 Bft) W-SW 247 0 min 0 UV-I 0 W/m 8,0 km/h (2 Bft)
03.11.2010 23:00 11,4 C 90 % 1014,9 hPa 0,3 mm 0,0 km/h (0 Bft) W-SW 247 0 min 0 UV-I 0 W/m 4,8 km/h (1 Bft)
03.11.2010 23:10 11,3 C 90 % 1014,9 hPa 0,0 mm 0,0 km/h (0 Bft) W-SW 247 0 min 0 UV-I 0 W/m 4,8 km/h (1 Bft)
03.11.2010 23:20 11,3 C 90 % 1014,7 hPa 0,0 mm 0,0 km/h (0 Bft) W-SW 247 0 min 0 UV-I 0 W/m 1,6 km/h (1 Bft)
03.11.2010 23:30 11,2 C 91 % 1014,5 hPa 0,3 mm 0,0 km/h (0 Bft) N 0 0 min 0 UV-I 0 W/m 0,0 km/h (0 Bft)
03.11.2010 23:40 11,2 C 91 % 1014,3 hPa 0,0 mm 0,0 km/h (0 Bft) W-SW 247 0 min 0 UV-I 0 W/m 1,6 km/h (1 Bft)
03.11.2010 23:50 11,1 C 91 % 1014,0 hPa 0,0 mm 0,0 km/h (0 Bft) S-SW 202 0 min 0 UV-I 0 W/m 4,8 km/h (1 Bft)
_ Min-Zeit 23:40 05:20 06:40 - 17:50 - - - - - 23:30
Minimum _ 11,1 C 75 % 1008,4 hPa - 0,0 km/h (0 Bft) - - - - - 0,0 km/h (0 Bft)
_ Max-Zeit 08:10 14:40 22:20 22:20 09:00 - - 00:00 12:10 12:10 11:10
Maximum _ 12,9 C 92 % 1014,9 hPa 0,5 mm 11,3 km/h
W-SW (2 Bft)
- - 0 min 1 UV-I 113 W/m 37,0 km/h
W (5 Bft)
Durchschnitt _ 12,2 C 84 % 1011,2 hPa #5,8 mm 5,9 km/h (2 Bft) W-SW - #0 min. 1 UV-I 47 W/m 18,0 km/h (3 Bft)